Weather History for KAPF - October, 2013

Change the Weather History Date:

Sunday, October 20, 2013

  Actual Average Record
Temperature  
Mean Temperature 82 °F 78 °F  
Max Temperature 87 °F 86 °F 92 °F (1969)
Min Temperature 76 °F 69 °F 54 °F (1955)
Degree Days  
Heating Degree Days 0 0  
Month to date heating degree days 0 0  
Since 1 July heating degree days 0 0  
Cooling Degree Days 17 13  
Month to date cooling degree days 306 290  
Year to date cooling degree days 3506 3467  
Growing Degree Days 31 (Base 50)    
Moisture  
Dew Point 74 °F    
Average Humidity 82    
Maximum Humidity 100    
Minimum Humidity 63    
Precipitation  
Precipitation 0.00 in 0.10 in 2.43 in (2007)
Month to date precipitation 1.24 3.21  
Year to date precipitation 48.22 47.42  
Snow  
Snow 0.00 in - - ()
Month to date snowfall 0.0  
Since 1 July snowfall 0.0  
Since 1 September snowfall 0.0  
Snow Depth 0.00 in    
Sea Level Pressure  
Sea Level Pressure 29.92 in    
Wind  
Wind Speed 2 mph (WSW)    
Max Wind Speed 10 mph    
Max Gust Speed 14 mph    
Visibility 9 miles    
Events      
T = Trace of Precipitation, MM = Missing Value Source: NWS Daily Summary

Daily Weather History Graph

Daily Weather History Graph

Search for Another Location

Airport or City:

Trip Planner

Search our weather history database for the weather conditions in past years. The results will help you decide how hot, cold, wet, or windy it might be!

Date:

Astronomy

Oct. 20, 2013 Rise Set
Actual Time 7:28 AM EDT 6:54 PM EDT
Civil Twilight 7:05 AM EDT 7:17 PM EDT
Nautical Twilight 6:38 AM EDT 7:44 PM EDT
Astronomical Twilight 6:11 AM EDT 8:11 PM EDT
Moon 8:13 PM EDT (10/20) 8:55 AM EDT (10/20)
Length of Visible Light 12h 12m
Length of Day
11h 25m
Full, 97% of the Moon is Illuminated
Oct 20
Full
Oct 26
Last Quarter
Nov 3
New
Nov 10
First Quarter
Nov 17
Full

Hourly Weather History & Observations

Time (EDT) Temp. Heat Index Dew Point Humidity Pressure Visibility Wind Dir Wind Speed Gust Speed Precip Events Conditions
12:53 AM 78.1 °F - 75.9 °F 93% 29.91 in 9.0 mi SE 4.6 mph - N/A   Clear
1:53 AM 78.1 °F - 75.9 °F 93% 29.91 in 8.0 mi Calm Calm - N/A   Clear
2:53 AM 77.0 °F - 75.9 °F 96% 29.89 in 7.0 mi ESE 3.5 mph - N/A   Scattered Clouds
3:53 AM 77.0 °F - 75.9 °F 96% 29.88 in 7.0 mi Calm Calm - N/A   Clear
4:53 AM 75.9 °F - 75.0 °F 97% 29.88 in 7.0 mi Calm Calm - N/A   Clear
5:53 AM 75.9 °F - 75.9 °F 100% 29.90 in 7.0 mi Calm Calm - N/A   Mostly Cloudy
6:53 AM 75.9 °F - 75.0 °F 97% 29.91 in 7.0 mi East 3.5 mph - N/A   Mostly Cloudy
7:35 AM 75.2 °F - 75.2 °F 100% 29.91 in 6.0 mi Calm Calm - N/A   Partly Cloudy
7:53 AM 75.9 °F - 75.0 °F 97% 29.92 in 6.0 mi Calm Calm - N/A   Clear
8:53 AM 78.1 °F - 75.9 °F 93% 29.93 in 9.0 mi Calm Calm - N/A   Mostly Cloudy
9:53 AM 82.9 °F 90.8 °F 75.9 °F 79% 29.95 in 10.0 mi Calm Calm - N/A   Clear
10:53 AM 82.9 °F 88.8 °F 73.0 °F 72% 29.95 in 10.0 mi Calm Calm - N/A   Partly Cloudy
11:53 AM 86.0 °F 93.8 °F 73.9 °F 67% 29.95 in 10.0 mi Variable 3.5 mph - N/A   Scattered Clouds
12:53 PM 84.9 °F 91.4 °F 73.0 °F 67% 29.94 in 10.0 mi Calm Calm - N/A   Scattered Clouds
1:53 PM 87.1 °F 95.4 °F 73.9 °F 65% 29.92 in 10.0 mi Variable 6.9 mph - N/A   Clear
2:53 PM 86.0 °F 93.0 °F 73.0 °F 65% 29.90 in 10.0 mi WSW 6.9 mph - N/A   Clear
3:53 PM 86.0 °F 93.8 °F 73.9 °F 67% 29.90 in 10.0 mi Variable 4.6 mph - N/A   Clear
4:53 PM 86.0 °F 93.0 °F 73.0 °F 65% 29.89 in 10.0 mi WNW 4.6 mph - N/A   Clear
5:53 PM 84.9 °F 91.4 °F 73.0 °F 67% 29.90 in 10.0 mi WNW 4.6 mph - N/A   Clear
6:53 PM 82.9 °F 89.4 °F 73.9 °F 74% 29.91 in 9.0 mi West 3.5 mph - N/A   Clear
7:53 PM 82.0 °F 87.9 °F 73.9 °F 76% 29.92 in 9.0 mi West 3.5 mph - N/A   Clear
8:53 PM 81.0 °F 86.2 °F 73.9 °F 79% 29.94 in 10.0 mi Calm Calm - N/A   Clear
9:53 PM 81.0 °F 85.8 °F 73.0 °F 77% 29.94 in 10.0 mi Calm Calm - N/A   Partly Cloudy
10:53 PM 80.1 °F 84.2 °F 73.0 °F 79% 29.96 in 10.0 mi Calm Calm - N/A   Partly Cloudy
11:53 PM 79.0 °F - 73.9 °F 84% 29.96 in 10.0 mi Calm Calm - N/A   Scattered Clouds